GW3457 Weather Reports


Display with metric or nautical units.
time (UTC)temp
F
wind
direction
speed
MPH
gust
MPH
rain 1hr
in
rain 24hr
in
rain mn
in
humidity
%
barometer
mb
20260509173059 60 16 0.0 4.0 0.00 0.13 0.13 81 1010.4
20260509171549 58 11 2.0 4.0 0.00 0.13 0.13 81 1010.3
20260509170049 59 13 0.0 3.0 0.00 0.13 0.13 82 1010.7
20260509164546 58 0 0.0 3.0 0.00 0.13 0.13 82 1011.0
20260509163051 58 141 0.0 2.0 0.00 0.13 0.13 83 1011.0
20260509161557 56 32 1.0 4.0 0.00 0.13 0.13 84 1011.2
20260509160051 56 0 0.0 2.0 0.00 0.13 0.13 84 1011.2
20260509154551 56 0 2.0 5.0 0.00 0.13 0.13 84 1011.2
20260509153058 55 22 1.0 4.0 0.00 0.13 0.13 85 1011.2
20260509151546 55 25 0.0 4.0 0.00 0.13 0.13 86 1011.1
20260509150039 54 13 1.0 4.0 0.00 0.13 0.13 88 1011.1
20260509144552 53 9 1.0 4.0 0.01 0.13 0.13 89 1011.1
20260509143051 51 0 1.0 4.0 0.02 0.13 0.13 89 1011.1
20260509141549 51 0 0.0 3.0 0.02 0.13 0.13 89 1011.4
20260509140103 51 289 1.0 5.0 0.04 0.13 0.13 87 1011.7
20260509134549 51 210 0.0 4.0 0.05 0.12 0.12 87 1011.3
20260509133049 51 0 2.0 7.0 0.07 0.11 0.11 86 1011.2
20260509131549 51 0 0.0 1.0 0.08 0.11 0.11 90 1011.3
20260509130049 51 0 0.0 3.0 0.07 0.09 0.09 89 1011.5
20260509124550 51 150 0.0 3.0 0.07 0.07 0.07 88 1011.4
20260509123040 51 0 0.0 1.0 0.04 0.04 0.04 88 1011.5
20260509121550 51 0 0.0 0.0 0.03 0.03 0.03 87 1011.4
20260509120050 51 360 0.0 3.0 0.02 0.02 0.02 87 1011.6
20260509114547 51 0 1.0 4.0 0.00 0.00 0.00 85 1011.7
20260509113047 51 360 0.0 4.0 0.00 0.00 0.00 83 1011.7
20260509111546 51 0 0.0 2.0 0.00 0.00 0.00 82 1011.6
20260509110051 51 0 0.0 1.0 0.00 0.00 0.00 82 1011.3
20260509104553 51 0 0.0 3.0 0.00 0.00 0.00 82 1011.0
20260509103100 51 0 0.0 1.0 0.00 0.00 0.00 81 1010.8
20260509101552 52 0 0.0 2.0 0.00 0.00 0.00 79 1010.6
20260509100049 52 0 0.0 0.0 0.00 0.00 0.00 76 1010.7
20260509094554 52 0 0.0 3.0 0.00 0.00 0.00 75 1010.7
20260509093049 51 0 0.0 3.0 0.00 0.00 0.00 77 1010.7
20260509091551 51 0 0.0 2.0 0.00 0.00 0.00 78 1010.6
20260509090057 51 0 0.0 1.0 0.00 0.00 0.00 77 1010.5
20260509084557 51 146 0.0 4.0 0.00 0.00 0.00 78 1010.6
20260509083104 51 0 0.0 1.0 0.00 0.00 0.00 79 1010.6
20260509081547 51 0 0.0 2.0 0.00 0.00 0.00 78 1010.6
20260509080048 51 0 0.0 2.0 0.00 0.00 0.00 78 1010.7
20260509074608 52 0 0.0 1.0 0.00 0.00 0.00 78 1010.7
20260509073058 52 0 0.0 3.0 0.00 0.00 0.00 77 1010.8
20260509071555 52 0 0.0 1.0 0.00 0.00 0.00 77 1010.9
20260509070051 52 0 0.0 2.0 0.00 0.00 0.00 77 1010.8
20260509064547 52 0 1.0 3.0 0.00 0.00 0.00 77 1010.9
20260509063101 52 0 0.0 1.0 0.00 0.00 0.00 76 1011.1
20260509061550 52 0 0.0 1.0 0.00 0.00 0.00 75 1010.9
20260509060101 53 0 0.0 2.0 0.00 0.00 0.00 75 1010.9
20260509054549 53 360 0.0 1.0 0.00 0.00 0.00 74 1011.0
20260509053057 53 0 0.0 1.0 0.00 0.00 0.00 73 1011.1
20260509051549 54 360 0.0 2.0 0.00 0.00 0.00 73 1011.2
20260509050049 54 78 0.0 2.0 0.00 0.00 0.00 71 1011.3
20260509044539 54 0 0.0 2.0 0.00 0.00 0.00 71 1011.4
20260509043051 54 53 0.0 2.0 0.00 0.00 0.00 69 1011.3
20260509041548 54 0 0.0 1.0 0.00 0.00 0.00 69 1011.2
20260509034546 55 32 0.0 3.0 0.00 0.00 0.00 70 1011.2
20260509033107 55 0 1.0 2.0 0.00 0.00 0.00 69 1011.3
20260509031544 55 156 0.0 3.0 0.00 0.00 0.00 67 1011.5
20260509030048 56 0 0.0 1.0 0.00 0.00 0.00 68 1011.7
20260509024557 56 0 0.0 2.0 0.00 0.00 0.00 67 1011.8
20260509023046 56 0 0.0 1.0 0.00 0.00 0.00 66 1011.8
20260509021547 56 235 0.0 2.0 0.00 0.00 0.00 65 1011.8
20260509014542 56 222 0.0 2.0 0.00 0.00 0.00 64 1011.7
20260509013052 57 0 0.0 3.0 0.00 0.00 0.00 62 1011.7
20260509011558 57 232 0.0 1.0 0.00 0.00 0.00 60 1011.5
20260509010050 58 0 0.0 2.0 0.00 0.00 0.00 59 1011.4
20260509004551 59 0 0.0 2.0 0.00 0.00 0.00 58 1011.3
20260509003056 59 0 0.0 1.0 0.00 0.00 0.00 54 1011.3
20260509001546 61 0 0.0 1.0 0.00 0.00 0.00 52 1011.4
20260509000048 62 0 0.0 1.0 0.00 0.00 0.00 50 1011.3
20260508234547 62 0 0.0 2.0 0.00 0.00 0.00 47 1011.1
20260508233055 63 0 0.0 2.0 0.00 0.00 0.00 43 1011.2
20260508231550 65 17 0.0 2.0 0.00 0.00 0.00 40 1010.8
20260508230053 67 17 0.0 5.0 0.00 0.00 0.00 37 1010.9
20260508224553 68 12 2.0 7.0 0.00 0.00 0.00 35 1010.9
20260508223047 66 14 1.0 7.0 0.00 0.00 0.00 38 1011.1
20260508221547 65 13 5.0 14.0 0.00 0.00 0.00 38 1011.1
20260508220052 66 13 4.0 11.0 0.00 0.00 0.00 37 1011.1
20260508214547 65 13 3.0 13.0 0.00 0.00 0.00 38 1011.0
20260508213054 65 17 4.0 16.0 0.00 0.00 0.00 37 1011.2
20260508211550 65 15 6.0 15.0 0.00 0.00 0.00 37 1011.2
20260508210054 65 15 5.0 15.0 0.00 0.00 0.00 37 1011.3
20260508204558 65 17 6.0 14.0 0.00 0.00 0.00 36 1011.4
20260508203058 65 16 5.0 15.0 0.00 0.00 0.00 35 1011.5
20260508201554 65 19 4.0 15.0 0.00 0.00 0.00 35 1011.7
20260508200049 65 13 6.0 20.0 0.00 0.00 0.00 34 1011.7
20260508194602 66 15 9.0 23.0 0.00 0.00 0.00 33 1011.7
20260508193113 66 15 6.0 25.0 0.00 0.00 0.00 33 1011.6
20260508191600 67 15 6.0 17.0 0.00 0.00 0.00 33 1011.9
20260508184546 65 16 5.0 17.0 0.00 0.00 0.00 32 1012.2
20260508183051 66 15 7.0 21.0 0.00 0.00 0.00 31 1012.2
20260508181554 67 13 7.0 18.0 0.00 0.00 0.00 30 1012.2
20260508180049 68 13 9.0 20.0 0.00 0.00 0.00 30 1012.3
20260508174549 67 14 8.0 17.0 0.00 0.00 0.00 31 1012.6